Regional Weather Roundup
Issued by NWS

Home | Current Version | Previous Version | Graphics & Text | Print | Product List | Glossary Off
Versions: 1 2 3 4 5 6 7 8 9 10 11 12 13 14 15 16 17 18 19 20 21 22 23 24 25 26 27 28 29 30 31 32 33 34 35 36 37 38 39 40 41 42 43 44 45 46 47 48 49 50

000
ASUS43 KFSD 300310
RWRSD

WEATHER ROUNDUP FOR SOUTH DAKOTA
NATIONAL WEATHER SERVICE SIOUX FALLS SD
1000 PM CDT FRI JUL 29 2016

NOTE: "FAIR" INDICATES FEW OR NO CLOUDS BELOW 12,000 FEET WITH NO
SIGNIFICANT WEATHER AND/OR OBSTRUCTIONS TO VISIBILITY.


SDZ001>005-009-010-012>017-300400-
NORTHWEST AND NORTH CENTRAL SOUTH DAKOTA

CITY           SKY/WX    TMP DP  RH WIND       PRES   REMARKS
BUFFALO          N/A     75  53  46 E7        29.94R
FAITH            N/A     68  56  65 S10       29.99R
MOBRIDGE       CLEAR     72  57  59 E3        29.96S
$$

SDZ012>016-024>037-041>051-057-063-072>074-300400-
SOUTHWEST AND SOUTH CENTRAL SOUTH DAKOTA

CITY           SKY/WX    TMP DP  RH WIND       PRES   REMARKS
RAPID CTY ARPT CLEAR     67  56  67 SW5       30.01F
PIERRE         PTCLDY    72  57  59 SE9       29.98R
CUSTER         PTCLDY    61  53  75 CALM      30.15R
ELLSWORTH AFB  CLEAR     71  57  61 S6        30.01S
PHILIP         CLEAR     69  62  78 E5        29.98S
PINE RIDGE     CLOUDY    69  63  81 S5        30.02S
WINNER         FAIR      69  61  75 SE7       30.02S
$$

SDZ004>011-016>023-039-040-300400-
NORTHEAST SOUTH DAKOTA

CITY           SKY/WX    TMP DP  RH WIND       PRES   REMARKS
ABERDEEN       CLOUDY    68  63  84 SE7       30.00R
WATERTOWN      CLEAR     70  57  63 SE6       30.05R
BROOKINGS      CLEAR     67  58  72 SE6       30.06R
SISSETON         N/A     68  62  81 S6        30.02R
$$

SDZ017-020-022-023-036>040-048>070-300400-
SOUTHEAST SOUTH DAKOTA

CITY           SKY/WX    TMP DP  RH WIND       PRES   REMARKS
SIOUX FALLS    PTCLDY    68  56  65 E8        30.05R
HURON          PTCLDY    70  54  56 SE9       30.01R
CHAMBERLAIN    CLOUDY    66  59  76 SE7       30.01R
MITCHELL       CLEAR     70  55  59 SE8       30.03S
YANKTON        CLEAR     70  55  60 CALM      30.02R
$$

ABBREVIATIONS USED IN REMARKS
   TC - TEMPERATURE IN CELSIUS
  WCI - WIND CHILL INDEX
   HX - HEAT INDEX
  VSB - VISIBILITY




USA.gov is the U.S. government's official web portal to all federal, state and local government web resources and services.